Content
SEND FEEDBACK

Daily
Averages
Monthly
Summary
United Kingdom

LONDON, ENGLAND


Home > Europe > United Kingdom > England
Elevation: 203 feet     Latitude: 51 09N     Longitude: 000 11W

WEATHER
 
SELECT A DAY
Number of Records: 298,768;   Date Range: 7/1/96 - 11/25/14
 
SHARE

PRINT THIS DATA

[ ← Previous Day ]
WEATHER ALMANAC - APRIL 3, 2013
[ Next Day → ]
[ °C ]   °F
Weather ElementAverageHighLow
Temperature35.3 °F37.4 °F (11:20 am)30.2 °F (2:50 am)
Dewpoint25.8 °F30.2 °F (7:50 am)23 °F (12:50 am)
Humidity69.1 %93 % (6:20 am)56 % (10:50 pm)
Barometer30.01 in30.04 in (12:50 am)29.98 in (5:20 pm)
Wind Speed14.8 mph21.9 mph (1:50 pm)
Wind Gust33.4 mph (5:20 pm)
Weather ElementAverage
Visibility6.2 mi
Wind DirectionNNE (36 °)

Weather ElementTotal
Precipitation---
Heating Degree Days31.2 (Base 65)
Averaged from 47 records on April 3, 2013
WEATHER CONDITIONS BREAKOUT
WIND DIRECTION BREAKOUT
WEATHER BY HOUR - APRIL 3, 2013
[ °C ]   °F
Local TimeTemperatureDewpointHumidityBarometerVisibilityWind DirectionWind SpeedGust SpeedPrecipitationEventsConditions
12:50 AM33.8 °F23.0 °F65 %30.04 inNNE (30°)9.2 mphClear
1:20 AM32.0 °F23.0 °F69 %30.04 inNorth (10°)8.1 mphClear
1:50 AM32.0 °F24.8 °F75 %30.04 inNorth (10°)8.1 mphClear
2:20 AM32.0 °F24.8 °F75 %30.04 inNNE (20°)6.9 mphClear
2:50 AM30.2 °F24.8 °F80 %30.04 inNorth (10°)6.9 mphClear
3:20 AM32.0 °F26.6 °F80 %30.04 inNNE (20°)8.1 mphClear
3:50 AM30.2 °F26.6 °F86 %30.04 inNNE (20°)8.1 mphClear
4:20 AM30.2 °F26.6 °F86 %30.01 inNNE (20°)9.2 mphClear
4:50 AM30.2 °F26.6 °F86 %30.01 inNorth (10°)10.4 mphClear
5:20 AM30.2 °F26.6 °F86 %30.01 inNNE (20°)9.2 mphClear
5:50 AM30.2 °F26.6 °F86 %30.01 in6.2 miNorth (10°)8.1 mphPartly Cloudy
6:20 AM30.2 °F28.4 °F93 %30.01 in6.2 miNNE (30°)4.6 mphPartly Cloudy
6:50 AM32.0 °F28.4 °F87 %30.01 in6.2 miNNE (30°)8.1 mphPartly Cloudy
7:20 AM32.0 °F28.4 °F87 %30.01 inNNE (30°)9.2 mphClear
7:50 AM33.8 °F30.2 °F87 %30.01 inNNE (30°)9.2 mphClear
8:20 AM35.6 °F30.2 °F81 %30.01 in5.6 miNE (40°)15.0 mphScattered Clouds
8:50 AM35.6 °F28.4 °F75 %30.04 in6.2 miNE (40°)15.0 mphMostly Cloudy
9:20 AM35.6 °F26.6 °F70 %30.04 in6.2 miNE (40°)15.0 mphMostly Cloudy
9:50 AM35.6 °F26.6 °F70 %30.04 in6.2 miNE (40°)15.0 mphOvercast
10:20 AM35.6 °F26.6 °F70 %30.04 in6.2 miNE (50°)17.3 mphOvercast
10:50 AM35.6 °F26.6 °F70 %30.04 in6.2 miNE (40°)17.3 mphMostly Cloudy
11:20 AM37.4 °F24.8 °F60 %30.04 in6.2 miNE (50°)17.3 mphMostly Cloudy
11:50 AM37.4 °F24.8 °F60 %30.04 in6.2 miNE (40°)20.7 mphMostly Cloudy
12:20 PM37.4 °F24.8 °F60 %30.04 in6.2 miNE (50°)20.7 mphMostly Cloudy
12:50 PM37.4 °F24.8 °F60 %30.04 in6.2 miNE (40°)18.4 mphMostly Cloudy
1:20 PM37.4 °F24.8 °F60 %30.01 in6.2 miNE (40°)17.3 mphMostly Cloudy
1:50 PM37.4 °F24.8 °F60 %30.01 in6.2 miNE (50°)21.9 mphMostly Cloudy
2:20 PM37.4 °F24.8 °F60 %30.01 in6.2 miNE (50°)21.9 mphMostly Cloudy
2:50 PM37.4 °F24.8 °F60 %30.01 in6.2 miNE (50°)19.6 mphMostly Cloudy
3:20 PM37.4 °F24.8 °F60 %30.01 in6.2 miNE (40°)20.7 mphMostly Cloudy
3:50 PM37.4 °F24.8 °F60 %30.01 in6.2 miNE (50°)19.6 mphMostly Cloudy
4:20 PM37.4 °F24.8 °F60 %30.01 in6.2 miNE (40°)18.4 mphMostly Cloudy
4:50 PM37.4 °F24.8 °F60 %30.01 in6.2 miNE (50°)20.7 mphMostly Cloudy
5:20 PM37.4 °F24.8 °F60 %29.98 in6.2 miNE (50°)21.9 mph33.4 mphMostly Cloudy
5:50 PM37.4 °F26.6 °F65 %29.98 in6.2 miNE (50°)20.7 mphSnowLight Snow Showers
6:20 PM37.4 °F26.6 °F65 %29.98 in6.2 miNE (40°)15.0 mphMostly Cloudy
6:50 PM37.4 °F26.6 °F65 %29.98 in6.2 miNE (40°)17.3 mphMostly Cloudy
7:20 PM37.4 °F26.6 °F65 %29.98 in6.2 miNE (40°)17.3 mphScattered Clouds
7:50 PM37.4 °F26.6 °F65 %30.01 in6.2 miNE (50°)21.9 mphPartly Cloudy
8:20 PM37.4 °F26.6 °F65 %30.01 in6.2 miNE (40°)17.3 mphSnowLight Snow Showers
8:50 PM37.4 °F24.8 °F60 %30.01 in6.2 miNE (50°)17.3 mphScattered Clouds
9:20 PM37.4 °F24.8 °F60 %30.01 in6.2 miNE (50°)18.4 mphScattered Clouds
9:50 PM37.4 °F24.8 °F60 %30.01 in6.2 miNNE (30°)17.3 mphScattered Clouds
10:20 PM37.4 °F24.8 °F60 %29.98 in6.2 miNE (40°)12.7 mphScattered Clouds
10:50 PM37.4 °F23.0 °F56 %29.98 in6.2 miNE (40°)15.0 mphScattered Clouds
11:20 PM37.4 °F23.0 °F56 %29.98 in6.2 miNE (40°)13.8 mphScattered Clouds
11:50 PM37.4 °F24.8 °F60 %29.98 in6.2 miNNE (30°)16.1 mphPartly Cloudy
Hourly data recorded from EGKK, located miles away from London, England







STORIES FROM OUR PARTNERS